[[{"header":{"parameterUnit":"m.s-1","parameterCategory":1,"la1":30.2991,"la2":30.254,"lo1":-89.0895,"lo2":-89.0444,"dy":0.0017,"dx":0.0017,"nx":28,"ny":28,"refTime":"2025-02-01T03:00:00:Z","depth":0,"parameterNumber":2,"parameterNumberName":"U-component_of_WINDS"},"data":[0,0,0,0,0,0,0,0,0,0,0,0,0,0,0,0,0,0,0,0,0,0,0,0,0,0,0,0,0,0,0,0,0,0,0,0,0,0,0,0,0,0,0,0,0,0,0,0,0,0,0,0,0,0,0,0,0,0,0.2864,0.2864,0,0.2915,0.2916,0.2916,0.2942,0.2942,0.2942,0.2942,0.2995,0.2997,0.2998,0,0,0,0,0,0,0,0,0,0,0,0,0,0.2787,0.2788,0.2864,0.2864,0.2865,0.2915,0.2916,0.2917,0.2942,0.2942,0.2942,0.2942,0.2995,0.2996,0.2998,0,0,0,0,0,0,0,0,0,0,0,0,0,0.2827,0.2788,0.2864,0.2883,0.2886,0.2915,0.2916,0.2917,0.2942,0.2942,0.2942,0.2942,0.2994,0.2996,0.2998,0.3012,0,0,0.3005,0.3006,0,0,0,0,0,0,0,0,0.2825,0.283,0.288,0.2882,0.2885,0.2922,0.2908,0.2949,0.2942,0.292,0.2942,0.2942,0.2971,0.2975,0.2985,0.3014,0.3017,0.3005,0.3006,0.3007,0.3008,0,0,0,0,0,0,0,0.2822,0.2828,0.2884,0.2881,0.2884,0.289,0.2896,0.2916,0.2945,0.2922,0.2924,0.293,0.2972,0.2983,0.2986,0.3017,0.3005,0.3007,0.3008,0.3009,0.306,0.306,0,0,0,0,0,0,0.2816,0.2825,0.2882,0.2886,0.2854,0.2891,0.2898,0.291,0.2945,0.295,0.293,0.2931,0.2979,0.2984,0.2988,0.3006,0.3007,0.3009,0.3011,0.306,0.306,0.306,0,0,0,0,0,0,0.2814,0.2821,0.288,0.2856,0.2864,0.2892,0.2906,0.2911,0.2921,0.2951,0.2956,0.2935,0.2979,0.2985,0.3005,0.3008,0.301,0.3012,0.306,0.306,0.306,0.3041,0,0,0,0,0,0,0.2812,0.282,0.2826,0.2856,0.2865,0.2897,0.2906,0.2912,0.2925,0.2927,0.2957,0.2962,0.298,0.3002,0.3008,0.3011,0.3014,0.3059,0.306,0.306,0.3041,0.304,0.3039,0,0,0,0,0,0.2809,0.2819,0.2826,0.2833,0.2873,0.2897,0.2902,0.2922,0.2925,0.2931,0.2949,0.2961,0.3006,0.3004,0.301,0.3014,0.3059,0.306,0.306,0.3042,0.304,0.3039,0,0,0,0,0,0,0.2788,0.2823,0.2831,0.2851,0.2871,0.2901,0.2909,0.292,0.294,0.2941,0.2964,0.2971,0.2989,0.3004,0.3,0.3029,0.3034,0.3035,0.3018,0.3017,0.3016,0.3012,0.3016,0,0,0,0,0,0.2786,0.2803,0.2832,0.2847,0.2856,0.2881,0.2892,0.2905,0.2927,0.2935,0.2956,0.2976,0.2995,0.3007,0.3026,0.3043,0.305,0.3049,0.3048,0.3047,0.3048,0.3057,0.3057,0.306,0.306,0.306,0,0,0.2782,0.2802,0.2812,0.2843,0.286,0.2876,0.2888,0.2905,0.2917,0.2938,0.2958,0.2974,0.2998,0.3017,0.3026,0.303,0.3049,0.3047,0.3046,0.3048,0.3058,0.3057,0.3057,0.306,0.306,0.306,0,0,0.2782,0.2799,0.2813,0.2829,0.2854,0.2871,0.2874,0.2902,0.2913,0.2934,0.2949,0.2964,0.2996,0.3013,0.3025,0.303,0.3041,0.3036,0.303,0.3039,0.3039,0.3039,0.304,0.304,0.3036,0.3036,0.3036,0,0.2773,0.2798,0.2819,0.2835,0.2848,0.2866,0.288,0.2895,0.2925,0.2934,0.2937,0.2977,0.2995,0.3017,0.3018,0.3028,0.3032,0.3033,0.3037,0.3037,0.3038,0.3039,0.3039,0.3036,0.3036,0.3036,0.3036,0,0.2786,0.2803,0.2811,0.2839,0.2853,0.2868,0.289,0.2902,0.2913,0.2929,0.2949,0.2971,0.2994,0.3,0.3012,0.3024,0.3025,0.3033,0.3039,0.3036,0.3038,0.3039,0.3034,0.3035,0.3035,0.3035,0,0,0.2776,0.2813,0.2816,0.2828,0.2857,0.2871,0.2886,0.2908,0.2917,0.2937,0.295,0.2976,0.2983,0.2997,0.3011,0.3019,0.302,0.3025,0.3026,0.3023,0.3033,0.3028,0.3028,0.3027,0.3028,0.3028,0.3031,0,0.2779,0.2808,0.2826,0.2846,0.2862,0.288,0.2893,0.2911,0.2926,0.2941,0.2958,0.2976,0.2983,0.2992,0.3,0.3018,0.3022,0.3018,0.304,0.304,0.3033,0.3029,0.3023,0.3025,0.3032,0.3032,0.3032,0,0.2788,0.2807,0.2829,0.2854,0.2862,0.2873,0.2894,0.2909,0.293,0.294,0.2955,0.2969,0.2985,0.299,0.3012,0.3009,0.3019,0.3028,0.3029,0.3032,0.3036,0.3031,0.3027,0.3027,0.3034,0.3034,0.3033,0,0.2778,0.2808,0.2825,0.2835,0.2866,0.2873,0.2886,0.2907,0.2919,0.2938,0.2946,0.2966,0.2977,0.2992,0.3011,0.3012,0.3031,0.3037,0.304,0.3039,0.3043,0.3043,0.304,0.305,0.305,0.305,0.305,0,0.278,0.2793,0.2821,0.2831,0.2846,0.2866,0.288,0.2894,0.2912,0.2926,0.2942,0.2954,0.2978,0.2993,0.3008,0.3024,0.3029,0.3037,0.3041,0.3036,0.3034,0.3043,0.3043,0.305,0.305,0.305,0.305,0,0.2771,0.279,0.281,0.2837,0.2843,0.2853,0.2876,0.2886,0.2901,0.2918,0.2923,0.2947,0.2965,0.2985,0.301,0.302,0.3035,0.304,0.3027,0.303,0.3031,0.303,0.3033,0.3034,0.3043,0.3043,0.3043,0,0.2771,0.2782,0.2809,0.2819,0.2831,0.2847,0.2859,0.2879,0.289,0.2914,0.2922,0.2941,0.2958,0.2986,0.3006,0.3025,0.303,0.303,0.3034,0.3027,0.303,0.3029,0.303,0.3029,0.3029,0.3029,0.3029,0,0.277,0.2778,0.2795,0.2814,0.2828,0.2844,0.2861,0.2868,0.2891,0.2903,0.2922,0.2934,0.2959,0.2978,0.2999,0.3013,0.3024,0.3027,0.3029,0.3023,0.3015,0.3019,0.3024,0.3027,0.3027,0.3027,0.3027,0.3027,0.2765,0.2775,0.2795,0.2813,0.2827,0.2842,0.2853,0.2869,0.2885,0.2906,0.2917,0.2935,0.2955,0.2985,0.2997,0.3012,0.3015,0.3018,0.3018,0.3019,0.3017,0.3013,0.3016,0.3016,0.3016,0.3016,0.3016,0,0.2764,0.2778,0.2794,0.2816,0.283,0.2839,0.2858,0.2868,0.2884,0.2901,0.2917,0.2938,0.2955,0.2976,0.2995,0.3002,0.3008,0.3007,0.3006,0.3009,0.3013,0.3009,0.3002,0.3002,0.3002,0.3002,0.3002,0.3002,0.2765,0.2781,0.2792,0.2815,0.2829,0.2847,0.2856,0.287,0.2884,0.2906,0.2921,0.2934,0.2952,0.2972,0.2989,0.2994,0.3001,0.2998,0.3004,0.3008,0.3009,0.301,0.3007,0.2999,0.2999,0.2999,0.2999,0.2999]},{"header":{"parameterUnit":"m.s-1","parameterCategory":1,"la1":30.2991,"la2":30.254,"lo1":-89.0895,"lo2":-89.0444,"dy":0.0017,"dx":0.0017,"nx":28,"ny":28,"refTime":"2025-02-01T03:00:00:Z","depth":0,"parameterNumber":3,"parameterNumberName":"V-component_of_WINDS"},"data":[0,0,0,0,0,0,0,0,0,0,0,0,0,0,0,0,0,0,0,0,0,0,0,0,0,0,0,0,0,0,0,0,0,0,0,0,0,0,0,0,0,0,0,0,0,0,0,0,0,0,0,0,0,0,0,0,0,0,0.917,0.9169,0,0.9137,0.9137,0.9137,0.9119,0.9119,0.9119,0.9119,0.9084,0.9083,0.9082,0,0,0,0,0,0,0,0,0,0,0,0,0,0.9214,0.9214,0.917,0.9169,0.9169,0.9137,0.9137,0.9137,0.9119,0.9119,0.9119,0.9119,0.9084,0.9083,0.9082,0,0,0,0,0,0,0,0,0,0,0,0,0,0.919,0.9213,0.917,0.9157,0.9155,0.9138,0.9137,0.9136,0.9119,0.9119,0.9119,0.9119,0.9085,0.9083,0.9082,0.9074,0,0,0.9078,0.9077,0,0,0,0,0,0,0,0,0.9191,0.9188,0.9159,0.9158,0.9156,0.9132,0.914,0.9115,0.9119,0.9133,0.9119,0.9119,0.91,0.9097,0.9091,0.9073,0.9071,0.9078,0.9077,0.9076,0.9076,0,0,0,0,0,0,0,0.9193,0.9189,0.9157,0.9159,0.9157,0.9152,0.9148,0.9135,0.9117,0.9132,0.913,0.9127,0.9099,0.9093,0.909,0.907,0.9078,0.9076,0.9076,0.9075,0.9043,0.9043,0,0,0,0,0,0,0.9197,0.9191,0.9158,0.9156,0.9174,0.9151,0.9147,0.914,0.9117,0.9114,0.9127,0.9126,0.9095,0.9092,0.9089,0.9078,0.9076,0.9075,0.9074,0.9043,0.9043,0.9043,0,0,0,0,0,0,0.9198,0.9194,0.9159,0.9173,0.9168,0.915,0.9142,0.9139,0.9133,0.9114,0.911,0.9124,0.9095,0.9091,0.9078,0.9077,0.9074,0.9073,0.9043,0.9043,0.9043,0.9057,0,0,0,0,0,0,0.9199,0.9195,0.9192,0.9173,0.9168,0.915,0.9142,0.9139,0.9131,0.913,0.911,0.9106,0.9095,0.908,0.9077,0.9075,0.9072,0.9043,0.9043,0.9043,0.9056,0.9057,0.9058,0,0,0,0,0,0.9201,0.9197,0.9192,0.9188,0.9164,0.915,0.9146,0.9133,0.9131,0.9128,0.9115,0.9107,0.9077,0.9079,0.9075,0.9073,0.9043,0.9043,0.9043,0.9056,0.9057,0.9058,0,0,0,0,0,0,0.9216,0.9194,0.9189,0.9178,0.9166,0.9147,0.9142,0.9135,0.9122,0.9122,0.9105,0.9101,0.909,0.908,0.9082,0.9064,0.9059,0.9059,0.9071,0.9071,0.9072,0.9075,0.9071,0,0,0,0,0,0.9218,0.9208,0.919,0.9183,0.9177,0.9161,0.9154,0.9145,0.9131,0.9126,0.9112,0.9098,0.9086,0.9078,0.9066,0.9055,0.905,0.9051,0.9052,0.9052,0.9052,0.9045,0.9045,0.9043,0.9043,0.9043,0,0,0.9222,0.9209,0.9204,0.9185,0.9174,0.9164,0.9156,0.9146,0.9138,0.9124,0.9111,0.9101,0.9084,0.9072,0.9066,0.9063,0.9051,0.9052,0.9053,0.9052,0.9045,0.9045,0.9045,0.9043,0.9043,0.9043,0,0,0.9224,0.9214,0.9206,0.9196,0.918,0.9169,0.9168,0.9149,0.9142,0.9129,0.9118,0.9108,0.9087,0.9076,0.9067,0.9065,0.9057,0.9061,0.9065,0.9059,0.9059,0.9059,0.9058,0.9058,0.9061,0.9061,0.9061,0,0.9231,0.9216,0.9203,0.9194,0.9186,0.9173,0.9165,0.9155,0.9135,0.913,0.9127,0.9101,0.9088,0.9073,0.9073,0.9067,0.9063,0.9063,0.906,0.906,0.906,0.9058,0.9058,0.9061,0.9061,0.9061,0.9061,0,0.9225,0.9215,0.9211,0.9193,0.9185,0.9176,0.9161,0.9153,0.9145,0.9135,0.9121,0.9106,0.909,0.9086,0.9078,0.907,0.9069,0.9063,0.9059,0.9061,0.9059,0.9059,0.9062,0.9062,0.9062,0.9062,0,0,0.9236,0.9211,0.921,0.9202,0.9183,0.9175,0.9165,0.915,0.9144,0.9131,0.9122,0.9104,0.9099,0.909,0.908,0.9074,0.9073,0.9069,0.9068,0.907,0.9062,0.9066,0.9066,0.9067,0.9067,0.9067,0.9064,0,0.9235,0.9218,0.9206,0.9194,0.9184,0.9171,0.9163,0.915,0.914,0.9129,0.9117,0.9105,0.9099,0.9093,0.9087,0.9074,0.9071,0.9074,0.9058,0.9057,0.9062,0.9065,0.907,0.9067,0.9063,0.9063,0.9063,0,0.9233,0.9221,0.9207,0.919,0.9185,0.9178,0.9163,0.9153,0.9138,0.9131,0.912,0.911,0.9099,0.9095,0.9079,0.9081,0.9074,0.9066,0.9066,0.9064,0.906,0.9063,0.9066,0.9066,0.9062,0.9062,0.9062,0,0.9242,0.9222,0.9211,0.9205,0.9184,0.9179,0.917,0.9155,0.9147,0.9134,0.9128,0.9113,0.9105,0.9094,0.9079,0.9078,0.9064,0.906,0.9057,0.9057,0.9055,0.9055,0.9057,0.905,0.905,0.905,0.905,0,0.9242,0.9235,0.9215,0.9209,0.9199,0.9185,0.9176,0.9166,0.9152,0.9143,0.9131,0.9122,0.9104,0.9093,0.9082,0.9069,0.9066,0.9059,0.9056,0.906,0.9061,0.9055,0.9055,0.905,0.905,0.905,0.905,0,0.9251,0.9238,0.9225,0.9207,0.9202,0.9196,0.9179,0.9172,0.9161,0.9149,0.9146,0.9128,0.9114,0.9099,0.908,0.9072,0.906,0.9056,0.9066,0.9064,0.9063,0.9063,0.906,0.9059,0.9054,0.9054,0.9054,0,0.9252,0.9246,0.9227,0.922,0.9212,0.9201,0.9192,0.9178,0.917,0.9152,0.9146,0.9132,0.9119,0.9098,0.9083,0.9068,0.9063,0.9063,0.9061,0.9065,0.9063,0.9063,0.9062,0.9064,0.9064,0.9064,0.9064,0,0.9256,0.925,0.9239,0.9225,0.9216,0.9204,0.9192,0.9187,0.917,0.9161,0.9147,0.9137,0.9118,0.9103,0.9087,0.9076,0.9067,0.9065,0.9064,0.9068,0.9073,0.907,0.9068,0.9065,0.9065,0.9065,0.9065,0.9065,0.926,0.9254,0.924,0.9228,0.9217,0.9206,0.9199,0.9187,0.9175,0.9159,0.9151,0.9137,0.9121,0.9098,0.9088,0.9076,0.9073,0.9071,0.9071,0.907,0.9071,0.9076,0.9073,0.9073,0.9073,0.9073,0.9073,0,0.9263,0.9254,0.9243,0.9226,0.9217,0.921,0.9196,0.9188,0.9176,0.9163,0.9151,0.9135,0.912,0.9104,0.9089,0.9082,0.9078,0.9079,0.9079,0.9077,0.9075,0.9078,0.9083,0.9083,0.9083,0.9083,0.9083,0.9083,0.9264,0.9253,0.9245,0.9228,0.9218,0.9205,0.9198,0.9187,0.9177,0.9159,0.9148,0.9137,0.9123,0.9106,0.9092,0.9088,0.9082,0.9085,0.9079,0.9078,0.9077,0.9076,0.9078,0.9084,0.9084,0.9081,0.9081,0.9081]}]]